Regional Weather Roundup
Issued by NWS

Home | Current Version | Previous Version | Text Only | Print | Product List | Glossary Off
Versions: 1 2 3 4 5 6 7 8 9 10 11 12 13 14 15 16 17 18 19 20 21 22 23 24 25 26 27 28 29 30 31 32 33 34 35 36 37 38 39 40 41 42 43 44 45 46 47 48 49 50

000
ASUS43 KLOT 011112
RWRIL

ILLINOIS REGIONAL WEATHER ROUNDUP
NATIONAL WEATHER SERVICE CHICAGO/ROMEOVILLE IL
600 AM CDT WED APR 01 2015

NOTE: "FAIR" INDICATES FEW OR NO CLOUDS BELOW 12,000 FEET WITH NO
SIGNIFICANT WEATHER AND/OR OBSTRUCTIONS TO VISIBILITY.

* THESE STATIONS ARE NOT UNDER NWS QUALITY CONTROL. THEY ALSO MAY NOT
  REPORT WEATHER SUCH AS PRECIPITATION OR FOG.

ILZ001-002-007-009-015-016-024-011200-
NORTHWEST ILLINOIS

CITY           SKY/WX    TMP DP  RH WIND       PRES   REMARKS
MOLINE         CLEAR     36  31  82 CALM      29.96R
STERLING*      CLEAR     36  30  80 SE3       29.98R
SAVANNA*       CLEAR     35  33  92 CALM      29.96R
$$

ILZ003-004-008-010-011-017-018-011200-
NORTH CENTRAL ILLINOIS

CITY           SKY/WX    TMP DP  RH WIND       PRES   REMARKS
ROCKFORD       CLEAR     36  30  79 CALM      29.99R
FREEPORT*      CLEAR     30  28  92 E6        29.99R WCI  24
ROCHELLE*      CLEAR     34  31  89 SE5       29.99R WCI  30
DE KALB*       CLEAR     33  30  88 S9        29.99R WCI  26
PERU*          CLEAR     42  34  75 SE6       29.99R
$$

ILZ005-006-012>014-019>023-011200-
NORTHEAST ILLINOIS

CITY           SKY/WX    TMP DP  RH WIND       PRES   REMARKS
CHICAGO-OHARE  CLEAR     38  33  82 CALM      30.00R
CHICAGO-MIDWAY CLEAR     44  35  70 SW7       30.00R
AURORA         CLEAR     33  27  78 E3        30.00R
LANSING*       CLEAR     40  32  75 SW8       30.01R
JOLIET*        CLEAR     35  34  96 CALM      30.01R FOG
WAUKEGAN       FAIR      30  28  92 CALM      30.00R
DUPAGE AIRPORT CLEAR     34  32  92 S3        29.99R
KANKAKEE*      CLEAR     40  35  83 S12       30.02R
WHEELING       CLEAR     35  30  82 CALM      30.02R
MORRIS*        CLEAR     38  33  81 S6        29.99R WCI  33
ROMEOVILLE*    CLEAR     34  31  88 S6        30.00R WCI  29
NORTHERLY ISL    N/A     44  34  67 CALM        N/A
$$

LMZ740>746-011200-
SOUTHERN LAKE MICHIGAN

STATION/POSITION SKY/WX   TEMP    WIND        PRES    VSBY  WAVE
                          AIR SEA DIR/SP/G                  HT/PER
                          (F)     (DEG/KT/KT) (MB)    (MI)  (FT/S)
HARRISON CRIB              46     360/  8/ 13   N/A
BURNHAM HARBOR             43      CALM  / 10   N/A
CALUMET HARBOR             43     200/  7/  9 1014.1R
BURNS HARBOR               42     180/ 11/ 15 1015.9R
MICHIGAN CITY              44     160/ 11/ 14   N/A
$$

ILZ025>027-034>036-040-047-049-050-058-095>099-011200-
WEST-CENTRAL ILLINOIS

CITY           SKY/WX    TMP DP  RH WIND       PRES   REMARKS
QUINCY         CLEAR     47  34  60 S12       29.97R
GALESBURG*     CLEAR     39  31  72 SE5       29.96S
MACOMB*        CLEAR     44  32  63 S5        29.99R
JACKSONVILLE*  CLEAR     52  37  56 S7        29.99R
PITTSFIELD*    CLEAR     52  35  53 S6        30.00R
$$

ILZ028>032-037-038-041>044-048-051>054-059>061-011200-
CENTRAL ILLINOIS

CITY           SKY/WX    TMP DP  RH WIND       PRES   REMARKS
PONTIAC        CLEAR     35  33  90 SE6       30.01R WCI  30
BLOOMINGTON    CLEAR     44  37  76 S10       30.01R
DECATUR        CLEAR     46  36  68 S10       30.02R
PEORIA         CLEAR     46  35  65 CALM      29.99R
LACON*         CLEAR     42  34  73 S5        29.98R
LINCOLN*       CLEAR     40  35  83 S6        30.01R
SPRINGFIELD    CLEAR     46  36  68 S8        30.00R
TAYLORVILLE    CLEAR     43  36  75 S8        30.02R
$$

ILZ033-039-045-046-055>057-062-063-011200-
EAST-CENTRAL ILLINOIS

CITY           SKY/WX    TMP DP  RH WIND       PRES   REMARKS
CHAMPAIGN      CLEAR     36  32  85 SE9       30.03R WCI  29
DANVILLE*      CLEAR     40  34  80 S6        30.01R
RANTOUL*       CLEAR     39  35  85 S6        30.03R WCI  34
MATTOON        CLEAR     45  35  68 SE13      30.03R
PARIS*         CLEAR     38  35  87 S5        30.06R WCI  35
$$

ILZ079-100>102-011200-
SOUTHWEST ILLINOIS

CITY           SKY/WX    TMP DP  RH WIND       PRES   REMARKS
ALTON          CLEAR     40  37  89 SE3       30.02R
BELLEVILLE     CLEAR     40  40  99 SE2       30.02R
CAHOKIA*       CLEAR     41  37  86 CALM      30.02R
SPARTA*        CLEAR     44  37  73 CALM      30.04R
$$

ILZ064>066-069>071-074>076-080>082-084>086-088>090-092>094-011200-
SOUTH-CENTRAL ILLINOIS

CITY           SKY/WX    TMP DP  RH WIND       PRES   REMARKS
CARBONDALE     CLEAR     39  36  89 CALM      30.04R
CAIRO*         CLEAR     44  41  89 CALM      30.04S
EFFINGHAM*     CLEAR     43  33  67 E8        30.06R
MARION         CLEAR     46  37  71 S6        30.05R
MT. VERNON     CLEAR     36  30  80 CALM      30.06R
CENTRALIA*     CLEAR     42  35  76 CALM      30.04R
SALEM*         CLEAR     41  36  82 SE3       30.05R
METROPOLIS*    CLEAR     42  38  88 CALM      30.04R
$$

ILZ067-068-072-073-078-083-087-091-011200-
SOUTHEAST ILLINOIS

CITY           SKY/WX    TMP DP  RH WIND       PRES   REMARKS
LAWRENCEVILLE  CLEAR     40  34  79 SE3       30.07R
FLORA*         CLEAR     37  36  93 CALM      30.07R
FAIRFIELD*     CLEAR     45  37  73 CALM      30.06R
HARRISBURG*    CLEAR     41  39  92 CALM      30.07R
ROBINSON*      CLEAR     38  34  85 SE3       30.07R
CARMI*         CLEAR     40  35  80 SE6       30.07R
$$

ABBREVIATIONS USED IN REMARKS
   TC - TEMPERATURE IN CELSIUS
  WCI - WIND CHILL INDEX
   HX - HEAT INDEX
  VSB - VISIBILITY
$$



USA.gov is the U.S. government's official web portal to all federal, state and local government web resources and services.